Time,TemperatureF,DewpointF,PressureIn,WindDirection,WindDirectionDegrees,WindSpeedMPH,WindSpeedGustMPH,Humidity,HourlyPrecipIn,Conditions,Clouds,dailyrainin,SolarRadiationWatts/m^2,SoftwareType,DateUTC
2013-03-17 00:03:00,67.0,38.0,-100.00,WSW,237,2.0,13.0,35,0.00,,,0.00,0.000000,,2013-03-17 04:03:00,
2013-03-17 00:13:00,67.0,38.0,-100.00,WSW,237,2.0,13.0,35,0.00,,,0.00,0.000000,,2013-03-17 04:13:00,
2013-03-17 00:23:00,67.0,38.0,-100.00,WSW,237,2.0,13.0,35,0.00,,,0.00,0.000000,,2013-03-17 04:23:00,
2013-03-17 00:31:00,65.0,39.0,-100.00,SSE,156,2.0,7.0,38,0.00,,,0.00,0.000000,,2013-03-17 04:31:00,
2013-03-17 00:53:00,65.0,39.0,-100.00,SSE,156,2.0,7.0,38,0.00,,,0.00,0.000000,,2013-03-17 04:53:00,
2013-03-17 01:03:00,65.0,39.0,-100.00,SSE,156,2.0,7.0,38,0.00,,,0.00,0.000000,,2013-03-17 05:03:00,
2013-03-17 01:12:00,65.0,39.0,-100.00,SSE,156,2.0,7.0,38,0.00,,,0.00,0.000000,,2013-03-17 05:12:00,
2013-03-17 01:22:00,65.0,39.0,-100.00,SSE,156,2.0,7.0,38,0.00,,,0.00,0.000000,,2013-03-17 05:22:00,
2013-03-17 01:31:00,62.0,38.0,-100.00,SSE,165,2.0,4.0,41,0.00,,,0.00,0.000000,,2013-03-17 05:31:00,
2013-03-17 01:52:00,62.0,38.0,-100.00,SSE,165,2.0,4.0,41,0.00,,,0.00,0.000000,,2013-03-17 05:52:00,
2013-03-17 02:02:00,62.0,38.0,-100.00,SSE,165,2.0,4.0,41,0.00,,,0.00,0.000000,,2013-03-17 06:02:00,
2013-03-17 02:12:00,62.0,38.0,-100.00,SSE,165,2.0,4.0,41,0.00,,,0.00,0.000000,,2013-03-17 06:12:00,
2013-03-17 02:22:00,62.0,38.0,-100.00,SSE,165,2.0,4.0,41,0.00,,,0.00,0.000000,,2013-03-17 06:22:00,
2013-03-17 02:31:00,61.0,40.0,-100.00,SSE,154,2.0,3.0,45,0.00,,,0.00,0.000000,,2013-03-17 06:31:00,
2013-03-17 02:53:00,61.0,40.0,-100.00,SSE,154,2.0,3.0,45,0.00,,,0.00,0.000000,,2013-03-17 06:53:00,
2013-03-17 03:02:00,61.0,40.0,-100.00,SSE,154,2.0,3.0,45,0.00,,,0.00,0.000000,,2013-03-17 07:02:00,
2013-03-17 03:12:00,61.0,40.0,-100.00,SSE,154,2.0,3.0,45,0.00,,,0.00,0.000000,,2013-03-17 07:12:00,
2013-03-17 03:22:00,61.0,40.0,-100.00,SSE,154,2.0,3.0,45,0.00,,,0.00,0.000000,,2013-03-17 07:22:00,
2013-03-17 03:31:00,60.0,40.0,-100.00,South,180,0.0,5.0,47,0.00,,,0.00,0.000000,,2013-03-17 07:31:00,
2013-03-17 03:52:00,60.0,40.0,-100.00,South,180,0.0,5.0,47,0.00,,,0.00,0.000000,,2013-03-17 07:52:00,
2013-03-17 04:03:00,60.0,40.0,-100.00,South,180,0.0,5.0,47,0.00,,,0.00,0.000000,,2013-03-17 08:03:00,
2013-03-17 04:13:00,60.0,40.0,-100.00,South,180,0.0,5.0,47,0.00,,,0.00,0.000000,,2013-03-17 08:13:00,
2013-03-17 04:22:00,60.0,40.0,-100.00,South,180,0.0,5.0,47,0.00,,,0.00,0.000000,,2013-03-17 08:22:00,
2013-03-17 04:31:00,58.0,39.0,-100.00,SSE,147,1.0,3.0,50,0.00,,,0.00,0.000000,,2013-03-17 08:31:00,
2013-03-17 04:52:00,58.0,39.0,-100.00,SSE,147,1.0,3.0,50,0.00,,,0.00,0.000000,,2013-03-17 08:52:00,
2013-03-17 05:03:00,58.0,39.0,-100.00,SSE,147,1.0,3.0,50,0.00,,,0.00,0.000000,,2013-03-17 09:03:00,
2013-03-17 05:13:00,58.0,39.0,-100.00,SSE,147,1.0,3.0,50,0.00,,,0.00,0.000000,,2013-03-17 09:13:00,
2013-03-17 05:22:00,58.0,39.0,-100.00,SSE,147,1.0,3.0,50,0.00,,,0.00,0.000000,,2013-03-17 09:22:00,
2013-03-17 05:31:00,56.0,39.0,-100.00,SE,126,0.0,2.0,53,0.00,,,0.00,0.000000,,2013-03-17 09:31:00,
2013-03-17 05:53:00,56.0,39.0,-100.00,SE,126,0.0,2.0,53,0.00,,,0.00,0.000000,,2013-03-17 09:53:00,
2013-03-17 06:03:00,56.0,39.0,-100.00,SE,126,0.0,2.0,53,0.00,,,0.00,0.000000,,2013-03-17 10:03:00,
2013-03-17 06:13:00,56.0,39.0,-100.00,SE,126,0.0,2.0,53,0.00,,,0.00,0.000000,,2013-03-17 10:13:00,
2013-03-17 06:23:00,56.0,39.0,-100.00,SE,126,0.0,2.0,53,0.00,,,0.00,0.000000,,2013-03-17 10:23:00,
2013-03-17 06:31:00,51.0,40.0,-100.00,ESE,120,0.0,0.0,66,0.00,,,0.00,0.000000,,2013-03-17 10:31:00,
2013-03-17 06:53:00,51.0,40.0,-100.00,ESE,120,0.0,0.0,66,0.00,,,0.00,0.000000,,2013-03-17 10:53:00,
2013-03-17 07:03:00,51.0,40.0,-100.00,ESE,120,0.0,0.0,66,0.00,,,0.00,0.000000,,2013-03-17 11:03:00,
2013-03-17 07:12:00,51.0,40.0,-100.00,ESE,120,0.0,0.0,66,0.00,,,0.00,0.000000,,2013-03-17 11:12:00,
2013-03-17 07:22:00,51.0,40.0,-100.00,ESE,120,0.0,0.0,66,0.00,,,0.00,0.000000,,2013-03-17 11:22:00,
2013-03-17 07:31:00,51.0,41.0,-100.00,SSE,163,0.0,2.0,68,0.00,,,0.00,0.000000,,2013-03-17 11:31:00,
2013-03-17 07:52:00,51.0,41.0,-100.00,SSE,163,0.0,2.0,68,0.00,,,0.00,0.000000,,2013-03-17 11:52:00,
2013-03-17 08:02:00,51.0,41.0,-100.00,SSE,163,0.0,2.0,68,0.00,,,0.00,0.000000,,2013-03-17 12:02:00,
2013-03-17 08:12:00,51.0,41.0,-100.00,SSE,163,0.0,2.0,68,0.00,,,0.00,0.000000,,2013-03-17 12:12:00,
2013-03-17 08:22:00,51.0,41.0,-100.00,SSE,163,0.0,2.0,68,0.00,,,0.00,0.000000,,2013-03-17 12:22:00,
2013-03-17 08:31:00,56.0,42.0,-100.00,South,174,2.0,4.0,60,0.00,,,0.00,41.000000,,2013-03-17 12:31:00,
2013-03-17 08:52:00,56.0,42.0,-100.00,South,174,2.0,4.0,60,0.00,,,0.00,41.000000,,2013-03-17 12:52:00,
2013-03-17 09:02:00,56.0,42.0,-100.00,South,174,2.0,4.0,60,0.00,,,0.00,41.000000,,2013-03-17 13:02:00,
2013-03-17 09:13:00,56.0,42.0,-100.00,South,174,2.0,4.0,60,0.00,,,0.00,41.000000,,2013-03-17 13:13:00,
2013-03-17 09:22:00,56.0,42.0,-100.00,South,174,2.0,4.0,60,0.00,,,0.00,41.000000,,2013-03-17 13:22:00,
2013-03-17 09:31:00,58.0,44.0,-100.00,SSW,213,2.0,4.0,59,0.00,,,0.00,134.000000,,2013-03-17 13:31:00,
2013-03-17 09:53:00,58.0,44.0,-100.00,SSW,213,2.0,4.0,59,0.00,,,0.00,134.000000,,2013-03-17 13:53:00,
2013-03-17 10:02:00,58.0,44.0,-100.00,SSW,213,2.0,4.0,59,0.00,,,0.00,134.000000,,2013-03-17 14:02:00,
2013-03-17 10:12:00,58.0,44.0,-100.00,SSW,213,2.0,4.0,59,0.00,,,0.00,134.000000,,2013-03-17 14:12:00,
2013-03-17 10:22:00,58.0,44.0,-100.00,SSW,213,2.0,4.0,59,0.00,,,0.00,134.000000,,2013-03-17 14:22:00,
2013-03-17 10:31:00,62.0,44.0,-100.00,WSW,250,4.0,7.0,51,0.00,,,0.00,240.000000,,2013-03-17 14:31:00,
2013-03-17 10:53:00,62.0,44.0,-100.00,WSW,250,4.0,7.0,51,0.00,,,0.00,240.000000,,2013-03-17 14:53:00,
2013-03-17 11:02:00,62.0,44.0,-100.00,WSW,250,4.0,7.0,51,0.00,,,0.00,240.000000,,2013-03-17 15:02:00,
2013-03-17 11:12:00,62.0,44.0,-100.00,WSW,250,4.0,7.0,51,0.00,,,0.00,240.000000,,2013-03-17 15:12:00,
2013-03-17 11:23:00,62.0,44.0,-100.00,WSW,250,4.0,7.0,51,0.00,,,0.00,240.000000,,2013-03-17 15:23:00,
2013-03-17 11:31:00,71.0,45.0,-100.00,SW,225,3.0,8.0,40,0.00,,,0.00,612.000000,,2013-03-17 15:31:00,
2013-03-17 11:53:00,71.0,45.0,-100.00,SW,225,3.0,8.0,40,0.00,,,0.00,612.000000,,2013-03-17 15:53:00,
2013-03-17 12:03:00,71.0,45.0,-100.00,SW,225,3.0,8.0,40,0.00,,,0.00,612.000000,,2013-03-17 16:03:00,
2013-03-17 12:13:00,71.0,45.0,-100.00,SW,225,3.0,8.0,40,0.00,,,0.00,612.000000,,2013-03-17 16:13:00,
2013-03-17 12:23:00,71.0,45.0,-100.00,SW,225,3.0,8.0,40,0.00,,,0.00,612.000000,,2013-03-17 16:23:00,
2013-03-17 12:31:00,76.0,46.0,-100.00,SW,236,4.0,9.0,34,0.00,,,0.00,804.000000,,2013-03-17 16:31:00,
2013-03-17 12:53:00,76.0,46.0,-100.00,SW,236,4.0,9.0,34,0.00,,,0.00,804.000000,,2013-03-17 16:53:00,
2013-03-17 13:03:00,76.0,46.0,-100.00,SW,236,4.0,9.0,34,0.00,,,0.00,804.000000,,2013-03-17 17:03:00,
2013-03-17 13:12:00,76.0,46.0,-100.00,SW,236,4.0,9.0,34,0.00,,,0.00,804.000000,,2013-03-17 17:12:00,
2013-03-17 13:22:00,76.0,46.0,-100.00,SW,236,4.0,9.0,34,0.00,,,0.00,804.000000,,2013-03-17 17:22:00,
2013-03-17 13:31:00,78.0,46.0,-100.00,SE,146,3.0,9.0,32,0.00,,,0.00,815.000000,,2013-03-17 17:31:00,
2013-03-17 13:53:00,78.0,46.0,-100.00,SE,146,3.0,9.0,32,0.00,,,0.00,815.000000,,2013-03-17 17:53:00,
2013-03-17 14:02:00,78.0,46.0,-100.00,SE,146,3.0,9.0,32,0.00,,,0.00,815.000000,,2013-03-17 18:02:00,
2013-03-17 14:12:00,78.0,46.0,-100.00,SE,146,3.0,9.0,32,0.00,,,0.00,815.000000,,2013-03-17 18:12:00,
2013-03-17 14:22:00,78.0,46.0,-100.00,SE,146,3.0,9.0,32,0.00,,,0.00,815.000000,,2013-03-17 18:22:00,
2013-03-17 14:31:00,80.0,46.0,-100.00,SSW,200,3.0,10.0,30,0.00,,,0.00,851.000000,,2013-03-17 18:31:00,
2013-03-17 14:52:00,80.0,46.0,-100.00,SSW,200,3.0,10.0,30,0.00,,,0.00,851.000000,,2013-03-17 18:52:00,
2013-03-17 15:02:00,80.0,46.0,-100.00,SSW,200,3.0,10.0,30,0.00,,,0.00,851.000000,,2013-03-17 19:02:00,
2013-03-17 15:12:00,80.0,46.0,-100.00,SSW,200,3.0,10.0,30,0.00,,,0.00,851.000000,,2013-03-17 19:12:00,
2013-03-17 15:23:00,80.0,46.0,-100.00,SSW,200,3.0,10.0,30,0.00,,,0.00,851.000000,,2013-03-17 19:23:00,
2013-03-17 15:31:00,79.0,46.0,-100.00,South,184,3.0,11.0,31,0.00,,,0.00,593.000000,,2013-03-17 19:31:00,
2013-03-17 15:53:00,79.0,46.0,-100.00,South,184,3.0,11.0,31,0.00,,,0.00,593.000000,,2013-03-17 19:53:00,
2013-03-17 16:02:00,79.0,46.0,-100.00,South,184,3.0,11.0,31,0.00,,,0.00,593.000000,,2013-03-17 20:02:00,
2013-03-17 16:12:00,79.0,46.0,-100.00,South,184,3.0,11.0,31,0.00,,,0.00,593.000000,,2013-03-17 20:12:00,
2013-03-17 16:22:00,79.0,46.0,-100.00,South,184,3.0,11.0,31,0.00,,,0.00,593.000000,,2013-03-17 20:22:00,
2013-03-17 16:31:00,77.0,46.0,-100.00,SSW,192,4.0,15.0,33,0.00,,,0.00,383.000000,,2013-03-17 20:31:00,
2013-03-17 16:52:00,77.0,46.0,-100.00,SSW,192,4.0,15.0,33,0.00,,,0.00,383.000000,,2013-03-17 20:52:00,
2013-03-17 17:03:00,77.0,46.0,-100.00,SSW,192,4.0,15.0,33,0.00,,,0.00,383.000000,,2013-03-17 21:03:00,
2013-03-17 17:12:00,77.0,46.0,-100.00,SSW,192,4.0,15.0,33,0.00,,,0.00,383.000000,,2013-03-17 21:12:00,
2013-03-17 17:23:00,77.0,46.0,-100.00,SSW,192,4.0,15.0,33,0.00,,,0.00,383.000000,,2013-03-17 21:23:00,
2013-03-17 17:31:00,75.0,42.0,-100.00,SSW,207,4.0,10.0,31,0.00,,,0.00,290.000000,,2013-03-17 21:31:00,
2013-03-17 17:53:00,75.0,42.0,-100.00,SSW,207,4.0,10.0,31,0.00,,,0.00,290.000000,,2013-03-17 21:53:00,
2013-03-17 18:03:00,75.0,42.0,-100.00,SSW,207,4.0,10.0,31,0.00,,,0.00,290.000000,,2013-03-17 22:03:00,
2013-03-17 18:13:00,75.0,42.0,-100.00,SSW,207,4.0,10.0,31,0.00,,,0.00,290.000000,,2013-03-17 22:13:00,
2013-03-17 18:23:00,75.0,42.0,-100.00,SSW,207,4.0,10.0,31,0.00,,,0.00,290.000000,,2013-03-17 22:23:00,
2013-03-17 18:31:00,64.0,49.0,-100.00,NNE,20,3.0,11.0,59,0.00,,,0.00,130.000000,,2013-03-17 22:31:00,
2013-03-17 18:53:00,64.0,49.0,-100.00,NNE,20,3.0,11.0,59,0.00,,,0.00,130.000000,,2013-03-17 22:53:00,
2013-03-17 19:03:00,64.0,49.0,-100.00,NNE,20,3.0,11.0,59,0.00,,,0.00,130.000000,,2013-03-17 23:03:00,
2013-03-17 19:13:00,64.0,49.0,-100.00,NNE,20,3.0,11.0,59,0.00,,,0.00,130.000000,,2013-03-17 23:13:00,
2013-03-17 19:22:00,64.0,49.0,-100.00,NNE,20,3.0,11.0,59,0.00,,,0.00,130.000000,,2013-03-17 23:22:00,
2013-03-17 19:31:00,59.0,48.0,-100.00,ENE,62,5.0,15.0,66,0.00,,,0.00,38.000000,,2013-03-17 23:31:00,
2013-03-17 19:53:00,59.0,48.0,-100.00,ENE,62,5.0,15.0,66,0.00,,,0.00,38.000000,,2013-03-17 23:53:00,
2013-03-17 20:03:00,59.0,48.0,-100.00,ENE,62,5.0,15.0,66,0.00,,,0.00,38.000000,,2013-03-18 00:03:00,
2013-03-17 20:13:00,59.0,48.0,-100.00,ENE,62,5.0,15.0,66,0.00,,,0.00,38.000000,,2013-03-18 00:13:00,
2013-03-17 20:22:00,59.0,48.0,-100.00,ENE,62,5.0,15.0,66,0.00,,,0.00,38.000000,,2013-03-18 00:22:00,
2013-03-17 20:31:00,57.0,46.0,-100.00,NE,50,5.0,16.0,66,0.00,,,0.00,0.000000,,2013-03-18 00:31:00,
2013-03-17 20:53:00,57.0,46.0,-100.00,NE,50,5.0,16.0,66,0.00,,,0.00,0.000000,,2013-03-18 00:53:00,
2013-03-17 21:02:00,57.0,46.0,-100.00,NE,50,5.0,16.0,66,0.00,,,0.00,0.000000,,2013-03-18 01:02:00,
2013-03-17 21:12:00,57.0,46.0,-100.00,NE,50,5.0,16.0,66,0.00,,,0.00,0.000000,,2013-03-18 01:12:00,
2013-03-17 21:22:00,57.0,46.0,-100.00,NE,50,5.0,16.0,66,0.00,,,0.00,0.000000,,2013-03-18 01:22:00,
2013-03-17 21:31:00,53.0,42.0,-100.00,North,2,3.0,11.0,66,0.00,,,0.00,0.000000,,2013-03-18 01:31:00,
2013-03-17 21:52:00,53.0,42.0,-100.00,North,2,3.0,11.0,66,0.00,,,0.00,0.000000,,2013-03-18 01:52:00,
2013-03-17 22:02:00,53.0,42.0,-100.00,North,2,3.0,11.0,66,0.00,,,0.00,0.000000,,2013-03-18 02:02:00,
2013-03-17 22:12:00,53.0,42.0,-100.00,North,2,3.0,11.0,66,0.00,,,0.00,0.000000,,2013-03-18 02:12:00,
2013-03-17 22:22:00,53.0,42.0,-100.00,North,2,3.0,11.0,66,0.00,,,0.00,0.000000,,2013-03-18 02:22:00,
2013-03-17 22:31:00,49.0,39.0,-100.00,North,357,3.0,10.0,69,0.00,,,0.00,0.000000,,2013-03-18 02:31:00,
2013-03-17 22:52:00,49.0,39.0,-100.00,North,357,3.0,10.0,69,0.00,,,0.00,0.000000,,2013-03-18 02:52:00,
2013-03-17 23:03:00,49.0,39.0,-100.00,North,357,3.0,10.0,69,0.00,,,0.00,0.000000,,2013-03-18 03:03:00,
2013-03-17 23:12:00,49.0,39.0,-100.00,North,357,3.0,10.0,69,0.00,,,0.00,0.000000,,2013-03-18 03:12:00,
2013-03-17 23:22:00,49.0,39.0,-100.00,North,357,3.0,10.0,69,0.00,,,0.00,0.000000,,2013-03-18 03:22:00,
2013-03-17 23:31:00,47.0,39.0,-100.00,North,356,3.0,12.0,73,0.00,,,0.00,0.000000,,2013-03-18 03:31:00,
2013-03-17 23:53:00,47.0,39.0,-100.00,North,356,3.0,12.0,73,0.00,,,0.00,0.000000,,2013-03-18 03:53:00,